DLH30M ESSA-EDDL

Flight info

Callsign DLH30M
Flight time N/A
Altitude 38000
Route NOSLI N850 ABAMA DCT NEXEN DCT GIMRU DCT NIE DCT DENOL T851 HALME HALME1A
Aircraft A339/H-SADE1E2E3GHIJ3J5M1P2RWXY/LB2D1

Departure

Time 2026-05-05 14:25
Airport Stockholm-Arlanda Airport (ESSA)

Arrival

Time N/A
Airport Düsseldorf Airport (EDDL)
Time Latitude Longitude Altitude Speed Heading
2026-05-05 13:46 59.65031 17.92769 143 ft 0 kts
2026-05-05 14:08 59.65015 17.92762 143 ft 2 kts 356°
2026-05-05 14:09 59.64996 17.92771 143 ft 2 kts 75°
2026-05-05 14:09 59.64990 17.92748 143 ft 0 kts 259°
2026-05-05 14:09 59.64999 17.92785 144 ft 3 kts 34°
2026-05-05 14:09 59.64992 17.92780 143 ft 0 kts 78°
2026-05-05 14:10 59.64991 17.92755 143 ft 3 kts 32°
2026-05-05 14:10 59.64977 17.92738 143 ft 2 kts 332°
2026-05-05 14:10 59.64965 17.92748 143 ft 1 kts 297°
2026-05-05 14:11 59.64961 17.92758 143 ft 0 kts 274°
2026-05-05 14:17 59.64961 17.92757 143 ft 0 kts 274°
2026-05-05 14:17 59.64961 17.92743 143 ft 0 kts 274°
2026-05-05 14:18 59.64962 17.92727 143 ft 2 kts 277°
2026-05-05 14:18 59.64965 17.92689 143 ft 3 kts 278°
2026-05-05 14:18 59.64968 17.92598 143 ft 12 kts 271°
2026-05-05 14:18 59.64968 17.92388 143 ft 17 kts 268°
2026-05-05 14:19 59.64947 17.92150 144 ft 18 kts 232°
2026-05-05 14:19 59.64823 17.92087 144 ft 20 kts 189°
2026-05-05 14:19 59.64673 17.92035 144 ft 24 kts 190°
2026-05-05 14:19 59.64510 17.91973 144 ft 24 kts 191°
2026-05-05 14:20 59.64348 17.91910 144 ft 24 kts 189°
2026-05-05 14:20 59.64186 17.91860 144 ft 23 kts 190°
2026-05-05 14:20 59.64024 17.91793 144 ft 23 kts 190°
2026-05-05 14:20 59.63865 17.91732 144 ft 23 kts 194°
2026-05-05 14:21 59.63778 17.91603 145 ft 0 kts 220°
2026-05-05 14:21 59.63777 17.91601 145 ft 1 kts 220°
2026-05-05 14:21 59.63769 17.91588 145 ft 2 kts 220°
2026-05-05 14:22 59.63755 17.91563 145 ft 5 kts 221°
2026-05-05 14:22 59.63730 17.91468 147 ft 8 kts 263°
2026-05-05 14:22 59.63737 17.91411 151 ft 2 kts 286°
2026-05-05 14:22 59.63753 17.91368 153 ft 7 kts 310°
2026-05-05 14:23 59.63836 17.91350 151 ft 16 kts
2026-05-05 14:23 59.63870 17.91359 151 ft 0 kts
2026-05-05 14:24 59.64013 17.91400 150 ft 60 kts 13°
2026-05-05 14:25 59.64734 17.91669 151 ft 145 kts
2026-05-05 14:25 59.65893 17.91951 664 ft 169 kts
2026-05-05 14:25 59.67060 17.92398 1686 ft 173 kts
2026-05-05 14:25 59.68257 17.92918 2655 ft 179 kts
2026-05-05 14:26 59.69480 17.93414 3599 ft 180 kts
2026-05-05 14:26 59.70702 17.93077 4449 ft 182 kts 333°
2026-05-05 14:26 59.71658 17.91436 5262 ft 179 kts 297°
2026-05-05 14:26 59.71973 17.89152 6258 ft 174 kts 270°
2026-05-05 14:27 59.71662 17.86844 7083 ft 178 kts 241°
2026-05-05 14:27 59.70952 17.84772 7881 ft 181 kts 238°
2026-05-05 14:27 59.70257 17.82716 8689 ft 183 kts 239°
2026-05-05 14:27 59.69557 17.80533 9469 ft 187 kts 239°
2026-05-05 14:28 59.68879 17.78328 10219 ft 187 kts 243°
2026-05-05 14:28 59.68402 17.75999 10990 ft 182 kts 255°
2026-05-05 14:28 59.68058 17.73614 11800 ft 178 kts 255°
2026-05-05 14:28 59.67707 17.71266 12558 ft 177 kts 254°
2026-05-05 14:29 59.67344 17.68923 13323 ft 175 kts 254°
2026-05-05 14:29 59.66940 17.66656 13983 ft 175 kts 246°
2026-05-05 14:29 59.66125 17.64866 14643 ft 180 kts 221°
2026-05-05 14:29 59.64929 17.63959 15317 ft 185 kts 208°
2026-05-05 14:30 59.63706 17.63201 15905 ft 184 kts 211°
2026-05-05 14:30 59.62487 17.62434 16540 ft 181 kts 212°
2026-05-05 14:30 59.61686 17.61921 16978 ft 178 kts 213°